Location: Unspecified
(0.0000°N, 0.0000°E)
Time: 14:38:05
(UTC+00:00)

STARLINK-34936 - Pass Details

Date: 19 February 2026
Orbit: 474 x 476 km, 53.2° (Epoch: 14 March)

Event Time Altitude Azimuth Distance (km) Brightness Sun altitude
Rises 19:59:16 0° 208° (SSW) 2,520 6.5 -25.8°
Reaches altitude 10° 20:01:27 10° 204° (SSW) 1,639 5.4 -26.4°
Enters shadow 20:02:37 19° 199° (SSW) 1,186 4.6 -26.7°
